Flag for Gambia Weather past 2 weeks in Banjul, Gambia

Now
70 °F

Passing clouds.


Feels Like: 70 °F
Forecast: 68 / 79 °F
Wind: 8 mph from Northwest

Location: Banjul / Yundum

Current Time: Apr 28, 2015 at 1:30:15 AM

Latest Report: Apr 28, 2015 at 1:00 AM


Visibility: N/A

Pressure: 29.89 "Hg

Humidity: 83%

Dew point: 64 °F

Location of BanjulLocation

Historic Weather in Banjul — Graph

°F

Banjul temperature yesterday

Maximum temperature yesterday: 86 °F (at 1:00 PM)
Minimum temperature yesterday: 66 °F (at 7:00 AM)
Average temperature yesterday: 75 °F

Past Weeks' High & Low Weather Summary

 TemperatureHumidityPressure
High97 °F (Apr 13, 2:00 PM)100% (Apr 25, 7:00 AM)29.95 "Hg (Apr 25, 7:00 AM)
Low66 °F (Apr 13, 6:00 AM)25% (Apr 13, 2:00 PM)29.77 "Hg (Apr 15, 4:00 PM)
Average74 °F74%29.84 "Hg
* Reported Midnight between Apr 12 and Apr 13 — Midnight between Apr 27 and Apr 28, Banjul, Weather by CustomWeather, © 2015

Note: Actual official high and low records may vary slightly from our data, if they occured in-between our weather recording intervals... More about our weather records

Advertising

Banjul weather history for previous 24 hours

 ConditionsComfort  
Time TempWeatherWind HumidityBarometerVisibility
12:00 AM
Tue, Apr 28
70 °FPassing clouds.6 mph88%29.89 "HgN/A
11:00 PM
Mon, Apr 27
72 °FPassing clouds.7 mph83%29.89 "HgN/A
10:00 PM72 °FPassing clouds.7 mph83%29.86 "HgN/A
9:00 PM73 °FPassing clouds.10 mph78%29.86 "HgN/A
8:00 PM73 °FPassing clouds.12 mph83%29.83 "HgN/A
7:00 PM75 °FPartly sunny.18 mph74%29.83 "HgN/A
6:00 PM77 °FPartly sunny.17 mph69%29.80 "HgN/A
5:00 PM81 °FPassing clouds.23 mph62%29.80 "HgN/A
4:00 PM82 °FPassing clouds.20 mph58%29.80 "HgN/A
3:00 PM84 °FSunny.23 mph55%29.83 "Hg10 mi
2:00 PM84 °FSunny.15 mph51%29.86 "Hg10 mi
1:00 PM86 °FSunny.17 mph55%29.86 "Hg10 mi
12:00 PM84 °FSunny.17 mph55%29.86 "Hg10 mi
11:00 AM82 °FSunny.13 mph55%29.89 "Hg10 mi
10:00 AM79 °FSunny.12 mph65%29.92 "Hg10 mi
9:00 AM73 °FSunny.12 mph78%29.89 "Hg10 mi
8:00 AM68 °FSunny.7 mph88%29.89 "Hg10 mi
7:00 AM66 °FSunny.No wind94%29.89 "Hg10 mi
6:00 AM68 °FClear.No wind88%29.86 "Hg10 mi
5:00 AMN/APassing clouds.6 mphN/A29.86 "HgN/A
4:00 AM70 °FPassing clouds.3 mph83%29.86 "HgN/A
3:00 AM70 °FPassing clouds.10 mph88%29.86 "HgN/A
2:00 AM70 °FPassing clouds.3 mph88%29.86 "HgN/A
1:00 AM70 °FPassing clouds.6 mph88%29.86 "HgN/A
Weather by CustomWeather, © 2015

See weather overviewHow to use our weather pages